Weather in Babino

Russia / Udmurt Republic     56°39′16″N   53°27′51″E
temp.,
°C
wind,
m/s
gust,
m/s
humid.,
%
clouds,
%
prec.,
mm/h
press.,
hPa
HPBL,
m
18 april, sun
sun1801:00+4nnw22715 0.0 102312
04:00+3nnw22755 0.0 102315
07:00+4nnw26745 0.0 1022144
10:00+7ne787064 0.0 1023863
13:00+6ne785774 0.0 10251273
16:00+6ne89375 0.0 10261417
19:00+5nne5105029 0.0 1027494
22:00+2ene613525 0.0 1029630
19 april, mon
mon1901:000ene6135619 0.0 1031477
04:00−2ene5125666 0.0 1032454
07:00−1ene611475 0.0 1033742
10:00+3e810280 0.0 10341392
13:00+5e78270 0.0 10331628
16:00+6e67280 0.0 10331686
19:00+3ene48410 0.0 1033217
22:000e38530 0.0 1034140
20 april, tue
tue2001:00−1e34540 0.0 103581
04:00−1e22550 0.0 103632
07:00+1e23460 0.0 1036154
10:00+5ese23320 0.0 1036987
13:00+7ese22290 0.0 10351310
16:00+8ene11280 0.0 10331251
19:00+6ne22400 0.0 103216
22:00+4e11440 0.0 103310
21 april, wed
wed2101:00+2ese22510 0.0 103218
04:00+1ese22550 0.0 103213
07:00+3se23521 0.0 1033119
10:00+8se453810 0.0 1032798
13:00+11se573283 0.0 10301146
16:00+12sse6831100 0.0 10291419
19:00+9se51045100 0.0 1029247
22:00+6sse31157100 0.0 1029240
22 april, thu
thu2201:00+5sse41259100 0.0 1029285
04:00+5sse51357100 0.0 1029345
07:00+6s6136199 0.0 1029812
10:00+5s71181100 0.1 1030942
13:00+5s61188100 0.8 1031889
16:00+6s61089100 1.2 10311020
19:00+5ssw4988100 0.0 1031485
22:00+6s5984100 0.0 1031844